Terug naar catalogus

STARLINK-5677

ActiefCommunicatieVLEO
NORAD 55463·PAYLOAD·🇺🇸 United States

Gelanceerd Feb 2, 2023 vanaf Cape Canaveral Space Force Station

Loading…

Volgende Passages (komende 24 uur)

TLE

VersSource: CelesTrak SupGP

Epoch: Sep 14, 2026, 20:44 UTC

1 55463C 23015Q   26257.86437500  .00013292  00000+0  58069-3 0  2573
2 55463  42.9994 354.7099 0008748 339.9288  99.1049 15.21276719    12

Volg STARLINK-5677 in realtime met AllMySat

Download on the App Store